[[{"header":{"parameterUnit":"m.s-1","parameterCategory":1,"la1":30.2991,"la2":30.254,"lo1":-89.0895,"lo2":-89.0444,"dy":0.0017,"dx":0.0017,"nx":28,"ny":28,"refTime":"2023-09-24T21:00:00:Z","depth":0,"parameterNumber":2,"parameterNumberName":"U-component_of_WINDS"},"data":[0,0,0,0,0,0,0,0,0,0,0,0,0,0,0,0,0,0,0,0,0,0,0,0,0,0,0,0,0,0,0,0,0,0,0,0,0,0,0,0,0,0,0,0,0,0,0,0,0,0,0,0,0,0,0,0,0,0,-2.6126,-2.6125,0,-2.6008,-2.6006,-2.6005,-2.5873,-2.5872,-2.587,-2.5868,-2.574,-2.5738,-2.5736,0,0,0,0,0,0,0,0,0,0,0,0,0,-2.6234,-2.6233,-2.6127,-2.6125,-2.6124,-2.6008,-2.6006,-2.6005,-2.5874,-2.5872,-2.5869,-2.5867,-2.574,-2.5738,-2.5736,0,0,0,0,0,0,0,0,0,0,0,0,0,-2.6158,-2.6232,-2.6127,-2.6045,-2.6036,-2.6008,-2.6006,-2.6004,-2.5874,-2.5871,-2.5869,-2.5866,-2.5741,-2.5738,-2.5736,-2.5778,0,0,-2.5728,-2.5727,0,0,0,0,0,0,0,0,-2.6163,-2.6155,-2.6058,-2.605,-2.6041,-2.5953,-2.5997,-2.5928,-2.5875,-2.5936,-2.5868,-2.5865,-2.5812,-2.5804,-2.5788,-2.5772,-2.5766,-2.5728,-2.5727,-2.5726,-2.5725,0,0,0,0,0,0,0,-2.6168,-2.6159,-2.6079,-2.6057,-2.6046,-2.6011,-2.5998,-2.5983,-2.5891,-2.593,-2.592,-2.5908,-2.5807,-2.579,-2.5784,-2.5764,-2.5728,-2.5726,-2.5725,-2.5724,-2.5774,-2.5777,0,0,0,0,0,0,-2.6187,-2.6164,-2.6083,-2.6076,-2.6096,-2.6012,-2.5996,-2.5984,-2.5891,-2.5874,-2.5911,-2.5903,-2.5796,-2.5787,-2.5779,-2.582,-2.5726,-2.5723,-2.5722,-2.5771,-2.5775,-2.5778,0,0,0,0,0,0,-2.619,-2.6181,-2.6088,-2.6117,-2.6103,-2.6013,-2.6,-2.5983,-2.5966,-2.5877,-2.5859,-2.5911,-2.5793,-2.5782,-2.5779,-2.5813,-2.5722,-2.572,-2.5768,-2.5772,-2.5776,-2.5904,0,0,0,0,0,0,-2.6193,-2.6183,-2.6199,-2.6119,-2.6102,-2.6093,-2.6002,-2.5983,-2.5963,-2.5951,-2.5872,-2.5856,-2.579,-2.5783,-2.5777,-2.5808,-2.5718,-2.5765,-2.577,-2.5775,-2.5896,-2.5912,-2.5925,0,0,0,0,0,-2.6198,-2.6239,-2.6201,-2.6192,-2.6121,-2.6095,-2.6085,-2.601,-2.5966,-2.5981,-2.5923,-2.5859,-2.5812,-2.5784,-2.5775,-2.5807,-2.5762,-2.5768,-2.5775,-2.5889,-2.5909,-2.5925,0,0,0,0,0,0,-2.6323,-2.6226,-2.6183,-2.62,-2.6157,-2.6073,-2.6089,-2.6033,-2.6,-2.599,-2.5896,-2.5879,-2.5887,-2.5846,-2.5818,-2.5841,-2.5777,-2.5782,-2.5867,-2.5885,-2.5899,-2.5908,-2.5716,0,0,0,0,0,-2.6353,-2.6343,-2.6258,-2.628,-2.6261,-2.618,-2.6165,-2.6112,-2.6062,-2.6043,-2.5985,-2.5937,-2.5911,-2.5896,-2.5867,-2.589,-2.5869,-2.5907,-2.5922,-2.5934,-2.5939,-2.5946,-2.5961,-2.5799,-2.5799,-2.5799,0,0,-2.6414,-2.636,-2.6359,-2.6304,-2.6265,-2.6253,-2.6165,-2.6157,-2.6146,-2.604,-2.6034,-2.599,-2.5931,-2.5941,-2.5942,-2.5907,-2.5979,-2.5943,-2.5953,-2.5951,-2.5954,-2.5969,-2.5983,-2.5803,-2.5802,-2.5802,0,0,-2.6519,-2.6479,-2.6492,-2.6455,-2.6397,-2.6342,-2.6346,-2.627,-2.6238,-2.623,-2.615,-2.6136,-2.6094,-2.6054,-2.6029,-2.612,-2.6058,-2.6113,-2.6189,-2.6196,-2.6209,-2.622,-2.625,-2.6262,-2.6118,-2.6119,-2.6119,0,-2.6602,-2.6584,-2.6506,-2.6503,-2.6481,-2.6387,-2.6399,-2.6365,-2.63,-2.6286,-2.6249,-2.6193,-2.6147,-2.6145,-2.6167,-2.6151,-2.6149,-2.612,-2.6214,-2.6224,-2.6233,-2.626,-2.6272,-2.6125,-2.6125,-2.6124,-2.6123,0,-2.6687,-2.6676,-2.6694,-2.6635,-2.6615,-2.6619,-2.654,-2.6529,-2.6477,-2.6426,-2.6418,-2.636,-2.6317,-2.6313,-2.6261,-2.6303,-2.6283,-2.6232,-2.6165,-2.6256,-2.628,-2.6291,-2.6135,-2.6133,-2.6131,-2.6129,0,0,-2.6866,-2.6766,-2.6774,-2.6745,-2.6675,-2.6663,-2.6663,-2.6623,-2.6614,-2.6572,-2.6567,-2.6534,-2.6486,-2.6457,-2.64,-2.6408,-2.6481,-2.6354,-2.6351,-2.6378,-2.652,-2.6558,-2.6572,-2.6441,-2.6442,-2.6444,-2.6524,0,-2.6957,-2.6953,-2.6883,-2.6897,-2.6884,-2.6795,-2.6794,-2.675,-2.6702,-2.6682,-2.6628,-2.6606,-2.6545,-2.6526,-2.653,-2.6472,-2.6508,-2.6465,-2.6432,-2.6432,-2.6448,-2.6585,-2.6625,-2.6704,-2.6534,-2.6535,-2.6536,0,-2.7062,-2.7029,-2.7043,-2.6971,-2.6963,-2.6964,-2.6921,-2.6905,-2.6851,-2.6816,-2.6785,-2.6721,-2.6712,-2.6652,-2.6637,-2.661,-2.6592,-2.6562,-2.6563,-2.6555,-2.6488,-2.6578,-2.6728,-2.6739,-2.6551,-2.655,-2.6549,0,-2.7189,-2.7148,-2.715,-2.7129,-2.7046,-2.7048,-2.7013,-2.6958,-2.6938,-2.69,-2.6886,-2.6847,-2.6825,-2.6795,-2.6722,-2.6685,-2.6715,-2.6648,-2.6682,-2.6684,-2.6691,-2.6691,-2.6837,-2.6684,-2.6684,-2.6684,-2.6683,0,-2.7297,-2.7308,-2.7206,-2.7207,-2.7217,-2.7136,-2.7147,-2.7103,-2.7054,-2.7043,-2.6963,-2.6954,-2.6859,-2.6839,-2.6781,-2.6776,-2.6768,-2.6736,-2.672,-2.6742,-2.6746,-2.6728,-2.6719,-2.6687,-2.6686,-2.6685,-2.6685,0,-2.7439,-2.7372,-2.7368,-2.7291,-2.7271,-2.7281,-2.7213,-2.721,-2.7158,-2.7145,-2.7137,-2.7055,-2.7026,-2.6951,-2.6903,-2.6863,-2.6874,-2.6846,-2.6893,-2.6882,-2.692,-2.6917,-2.7057,-2.7071,-2.6912,-2.6914,-2.6915,0,-2.7511,-2.7518,-2.7442,-2.743,-2.7399,-2.7381,-2.7361,-2.7282,-2.7264,-2.7203,-2.7207,-2.7173,-2.7141,-2.7099,-2.7033,-2.6995,-2.6964,-2.7016,-2.6957,-2.6979,-2.6962,-2.6961,-2.696,-2.7028,-2.703,-2.7032,-2.7033,0,-2.7645,-2.7612,-2.7587,-2.7551,-2.753,-2.7498,-2.746,-2.7454,-2.7364,-2.7348,-2.7319,-2.7295,-2.7247,-2.7213,-2.7165,-2.7125,-2.7063,-2.7053,-2.7058,-2.7079,-2.7105,-2.7089,-2.6925,-2.7049,-2.7048,-2.7047,-2.7046,-2.7045,-2.7752,-2.7754,-2.7701,-2.7676,-2.764,-2.7607,-2.76,-2.7547,-2.7523,-2.7479,-2.7433,-2.7409,-2.7353,-2.7283,-2.7248,-2.7226,-2.7193,-2.7202,-2.7204,-2.7206,-2.7215,-2.7112,-2.7217,-2.7216,-2.7216,-2.7215,-2.7215,0,-2.788,-2.7842,-2.782,-2.7771,-2.7751,-2.7699,-2.7654,-2.764,-2.7621,-2.7576,-2.7547,-2.7513,-2.748,-2.7412,-2.7372,-2.7367,-2.7337,-2.7359,-2.7357,-2.7348,-2.7248,-2.7246,-2.7383,-2.7383,-2.7383,-2.7383,-2.7383,-2.7383,-2.7944,-2.7944,-2.7904,-2.7884,-2.7845,-2.7823,-2.7801,-2.7769,-2.7733,-2.77,-2.7673,-2.763,-2.7574,-2.753,-2.7496,-2.7476,-2.7464,-2.7494,-2.7465,-2.7372,-2.7356,-2.734,-2.7338,-2.7493,-2.7493,-2.7567,-2.7568,-2.7568]},{"header":{"parameterUnit":"m.s-1","parameterCategory":1,"la1":30.2991,"la2":30.254,"lo1":-89.0895,"lo2":-89.0444,"dy":0.0017,"dx":0.0017,"nx":28,"ny":28,"refTime":"2023-09-24T21:00:00:Z","depth":0,"parameterNumber":3,"parameterNumberName":"V-component_of_WINDS"},"data":[0,0,0,0,0,0,0,0,0,0,0,0,0,0,0,0,0,0,0,0,0,0,0,0,0,0,0,0,0,0,0,0,0,0,0,0,0,0,0,0,0,0,0,0,0,0,0,0,0,0,0,0,0,0,0,0,0,0,-1.1599,-1.16,0,-1.17,-1.1701,-1.1703,-1.1713,-1.1712,-1.1711,-1.171,-1.1813,-1.1816,-1.182,0,0,0,0,0,0,0,0,0,0,0,0,0,-1.1412,-1.1416,-1.1599,-1.16,-1.1601,-1.17,-1.1702,-1.1703,-1.1713,-1.1712,-1.1711,-1.171,-1.1812,-1.1816,-1.182,0,0,0,0,0,0,0,0,0,0,0,0,0,-1.1501,-1.1417,-1.1598,-1.1618,-1.1621,-1.17,-1.1702,-1.1703,-1.1714,-1.1712,-1.1711,-1.1709,-1.181,-1.1815,-1.1821,-1.1886,0,0,-1.1838,-1.184,0,0,0,0,0,0,0,0,-1.1496,-1.1508,-1.1614,-1.1617,-1.162,-1.1693,-1.1673,-1.1765,-1.1714,-1.1679,-1.171,-1.1708,-1.1774,-1.1782,-1.1805,-1.1891,-1.1895,-1.1838,-1.1842,-1.1844,-1.1846,0,0,0,0,0,0,0,-1.149,-1.1504,-1.1639,-1.1616,-1.162,-1.1622,-1.1633,-1.1691,-1.1734,-1.1681,-1.1683,-1.1695,-1.1775,-1.1799,-1.1807,-1.1897,-1.1838,-1.1843,-1.1847,-1.1849,-1.2041,-1.2043,0,0,0,0,0,0,-1.1481,-1.1499,-1.1636,-1.1642,-1.1553,-1.1626,-1.1639,-1.1671,-1.1733,-1.1741,-1.1696,-1.1695,-1.1791,-1.1801,-1.1811,-1.189,-1.1844,-1.1849,-1.1852,-1.2039,-1.2042,-1.2043,0,0,0,0,0,0,-1.1476,-1.1493,-1.1631,-1.1571,-1.1589,-1.1631,-1.1667,-1.1674,-1.1698,-1.1744,-1.1751,-1.1712,-1.179,-1.1803,-1.1867,-1.1894,-1.1852,-1.1857,-1.2037,-1.204,-1.2042,-1.205,0,0,0,0,0,0,-1.1471,-1.1491,-1.1516,-1.1571,-1.1592,-1.1686,-1.1669,-1.1677,-1.1708,-1.1707,-1.1762,-1.1769,-1.179,-1.1859,-1.1873,-1.1901,-1.1861,-1.2035,-1.2038,-1.2042,-1.2048,-1.2053,-1.2057,0,0,0,0,0,-1.1464,-1.1514,-1.1518,-1.1534,-1.1624,-1.1688,-1.17,-1.1723,-1.171,-1.1735,-1.1765,-1.1767,-1.1889,-1.1865,-1.1881,-1.1911,-1.2033,-1.2037,-1.2041,-1.2046,-1.2052,-1.2057,0,0,0,0,0,0,-1.1461,-1.1522,-1.1526,-1.1596,-1.1637,-1.169,-1.1722,-1.1729,-1.1774,-1.1771,-1.1798,-1.181,-1.1873,-1.1899,-1.1871,-1.1977,-1.196,-1.1967,-1.1958,-1.1964,-1.1969,-1.196,-1.1866,0,0,0,0,0,-1.1468,-1.1515,-1.1566,-1.1622,-1.1643,-1.1679,-1.1708,-1.1722,-1.1766,-1.1783,-1.1817,-1.1859,-1.1906,-1.1937,-1.1984,-1.2052,-1.2064,-1.2081,-1.2086,-1.2089,-1.2095,-1.2132,-1.214,-1.2057,-1.2057,-1.2057,0,0,-1.1484,-1.1523,-1.1551,-1.1623,-1.1656,-1.1703,-1.1694,-1.1744,-1.178,-1.179,-1.1853,-1.188,-1.1928,-1.1994,-1.2025,-1.2018,-1.2121,-1.2094,-1.2097,-1.21,-1.2137,-1.2145,-1.2152,-1.2059,-1.2059,-1.2058,0,0,-1.1536,-1.1571,-1.1621,-1.1655,-1.1706,-1.173,-1.1743,-1.1795,-1.1813,-1.1877,-1.1886,-1.1928,-1.201,-1.2044,-1.2072,-1.2138,-1.2141,-1.2152,-1.2176,-1.2212,-1.2219,-1.2225,-1.2247,-1.2254,-1.2158,-1.2158,-1.2158,0,-1.1548,-1.162,-1.1646,-1.1696,-1.1727,-1.1741,-1.1791,-1.1823,-1.1886,-1.1907,-1.1898,-1.2001,-1.2035,-1.2109,-1.2125,-1.2148,-1.2161,-1.2145,-1.2216,-1.2222,-1.2228,-1.2249,-1.2258,-1.2159,-1.2159,-1.2159,-1.2159,0,-1.1632,-1.1682,-1.1717,-1.1778,-1.1814,-1.1864,-1.1897,-1.1929,-1.1941,-1.1966,-1.203,-1.2071,-1.2126,-1.2145,-1.2157,-1.2221,-1.2214,-1.2211,-1.2193,-1.2236,-1.2256,-1.2265,-1.216,-1.216,-1.216,-1.2159,0,0,-1.1682,-1.1759,-1.1771,-1.1799,-1.1857,-1.1896,-1.1947,-1.2001,-1.2028,-1.2072,-1.2114,-1.2184,-1.2181,-1.2212,-1.2228,-1.226,-1.2308,-1.2253,-1.2254,-1.226,-1.238,-1.2381,-1.239,-1.2312,-1.2314,-1.2315,-1.2375,0,-1.1739,-1.1831,-1.1856,-1.1933,-1.1979,-1.1993,-1.2038,-1.2078,-1.2103,-1.2145,-1.2173,-1.2221,-1.2214,-1.2233,-1.2266,-1.2295,-1.2332,-1.2292,-1.235,-1.2352,-1.2336,-1.2401,-1.2402,-1.2456,-1.2383,-1.2385,-1.2386,0,-1.1818,-1.1864,-1.1945,-1.1998,-1.2018,-1.2058,-1.2109,-1.215,-1.2196,-1.2212,-1.2248,-1.2261,-1.2314,-1.2296,-1.2369,-1.2341,-1.2366,-1.2385,-1.2388,-1.2392,-1.237,-1.2405,-1.2475,-1.2482,-1.2399,-1.2398,-1.2397,0,-1.1844,-1.1927,-1.1986,-1.201,-1.2073,-1.21,-1.2127,-1.2172,-1.2203,-1.2248,-1.2268,-1.2319,-1.2346,-1.2385,-1.2412,-1.2396,-1.2482,-1.2466,-1.2495,-1.2495,-1.2511,-1.2509,-1.2584,-1.2531,-1.2531,-1.2531,-1.2531,0,-1.1904,-1.1953,-1.1999,-1.2035,-1.209,-1.2119,-1.2173,-1.2201,-1.2241,-1.2282,-1.2298,-1.2336,-1.237,-1.2413,-1.2434,-1.2491,-1.2503,-1.2517,-1.2521,-1.2514,-1.2512,-1.253,-1.2526,-1.2533,-1.2533,-1.2532,-1.2532,0,-1.1941,-1.1974,-1.204,-1.2095,-1.211,-1.2148,-1.2194,-1.223,-1.2256,-1.2308,-1.2322,-1.2363,-1.2415,-1.2446,-1.2511,-1.2525,-1.2587,-1.2591,-1.2571,-1.2573,-1.26,-1.2596,-1.2687,-1.2699,-1.264,-1.264,-1.2641,0,-1.1976,-1.2014,-1.2074,-1.2103,-1.2131,-1.2178,-1.221,-1.224,-1.2272,-1.2328,-1.2357,-1.2409,-1.2453,-1.2534,-1.2569,-1.2619,-1.2623,-1.2651,-1.263,-1.2622,-1.2621,-1.2618,-1.2621,-1.2654,-1.2655,-1.2655,-1.2655,0,-1.2034,-1.2049,-1.2094,-1.2146,-1.2184,-1.2226,-1.2268,-1.2291,-1.2328,-1.2364,-1.2417,-1.2451,-1.2518,-1.2569,-1.2622,-1.265,-1.2658,-1.2662,-1.2671,-1.2663,-1.2649,-1.2655,-1.2579,-1.2659,-1.2659,-1.2659,-1.2658,-1.2658,-1.207,-1.2104,-1.2152,-1.2202,-1.2237,-1.2276,-1.2312,-1.2343,-1.2388,-1.2445,-1.2461,-1.2516,-1.2561,-1.2633,-1.2662,-1.2705,-1.2701,-1.2714,-1.2717,-1.272,-1.2719,-1.2644,-1.2715,-1.2715,-1.2715,-1.2715,-1.2715,0,-1.2127,-1.2159,-1.2205,-1.2263,-1.2303,-1.231,-1.2356,-1.2389,-1.2437,-1.2479,-1.2522,-1.2583,-1.2633,-1.2673,-1.2724,-1.2751,-1.2757,-1.2764,-1.2761,-1.2767,-1.2721,-1.2707,-1.2759,-1.2759,-1.2758,-1.2758,-1.2758,-1.2758,-1.2161,-1.222,-1.224,-1.2316,-1.2347,-1.2402,-1.2428,-1.2463,-1.2497,-1.2564,-1.2607,-1.2633,-1.2673,-1.2728,-1.2774,-1.2785,-1.2802,-1.2808,-1.2819,-1.2775,-1.277,-1.2765,-1.2752,-1.2812,-1.2812,-1.286,-1.2861,-1.2861]}]]